Location: São Paulo
(23.5507°S, 46.6334°W)
Time: 18:11:15
(UTC-03:00)

Tiros 1 - Pass Details

Date: 14 February 2026
Orbit: 618 x 649 km, 48.4° (Epoch: 6 March)

Event Time Altitude Azimuth Distance (km) Brightness Sun altitude
Rises 20:57:03 0° 296° (WNW) 2,918 10.9 -28.4°
Reaches altitude 10° 20:59:31 10° 287° (WNW) 2,021 10.2 -28.9°
Maximum altitude 21:03:47 35° 221° (SW) 1,033 8.6 -29.7°
Enters shadow 21:05:11 29° 185° (S) 1,180 8.7 -30.0°
Drops below altitude 10° 21:08:09 10° 154° (SSE) 2,054 - -30.6°
Sets 21:10:40 0° 145° (SE) 2,972 - -31.1°
